Weather History for Lamar, CO

Change the Weather History Date:

Tuesday, August 21, 2012

  Actual Average Record
Temperature  
Mean Temperature 73 °F 75 °F  
Max Temperature 91 °F 90 °F 105 °F (1918)
Min Temperature 55 °F 60 °F 49 °F (1992)
Degree Days  
Heating Degree Days 0 0  
Month to date heating degree days 0 0  
Since 1 June heating degree days 0 22  
Since 1 July heating degree days 0 2  
Cooling Degree Days 8 10  
Month to date cooling degree days 263 239  
Year to date cooling degree days 1387 903  
Since 1 June cooling degree days 1295 843  
Growing Degree Days 23 (Base 50)    
Moisture  
Dew Point 54 °F    
Average Humidity 62    
Maximum Humidity 100    
Minimum Humidity 24    
Precipitation  
Precipitation 0.00 in 0.06 in 2.22 in (1945)
Month to date precipitation 0.86 1.74  
Year to date precipitation 4.18 11.83  
Snow  
Snow 0.00 in - - ()
Month to date snowfall 0.0  
Since 1 June snowfall 0.0  
Snow Depth 0.00 in    
Sea Level Pressure  
Sea Level Pressure 29.92 in    
Wind  
Wind Speed 10 mph (SE)    
Max Wind Speed 22 mph    
Max Gust Speed 29 mph    
Visibility 10 miles    
Events      
T = Trace of Precipitation, MM = Missing Value Source: NWS Daily Summary

Daily Weather History Graph

Daily Weather History Graph

Search for Another Location

Airport:

Trip Planner

Search our weather history database for the weather conditions in past years. The results will help you decide how hot, cold, wet, or windy it might be!

Date:

Astronomy

Aug. 21, 2012 Rise Set
Actual Time 6:11 AM MDT 7:35 PM MDT
Civil Twilight 5:43 AM MDT 8:02 PM MDT
Nautical Twilight 5:10 AM MDT 8:35 PM MDT
Astronomical Twilight 4:35 AM MDT 9:10 PM MDT
Moon 10:38 AM MDT (8/21) 9:43 PM MDT (8/21)
Length of Visible Light 14h 19m
Length of Day
13h 23m
Waxing Crescent, 20% of the Moon is Illuminated
Aug 21
Waxing Crescent
Aug 24
First Quarter
Aug 31
Full
Sep 8
Last Quarter
Sep 15
New

Hourly Weather History & Observations

Time (MDT) Temp. Heat Index Dew Point Humidity Pressure Visibility Wind Dir Wind Speed Gust Speed Precip Events Conditions
12:53 AM 63.0 °F - 54.0 °F 72% 29.93 in 10.0 mi East 4.6 mph - N/A   Clear
1:53 AM 61.0 °F - 54.0 °F 78% 29.93 in 10.0 mi ESE 4.6 mph - N/A   Clear
2:53 AM 59.0 °F - 55.9 °F 90% 29.92 in 10.0 mi East 3.5 mph - N/A   Clear
3:53 AM 57.9 °F - 55.9 °F 93% 29.92 in 10.0 mi East 4.6 mph - N/A   Clear
4:53 AM 57.0 °F - 55.0 °F 93% 29.92 in 8.0 mi East 3.5 mph - N/A   Clear
5:53 AM 55.9 °F - 55.0 °F 97% 29.94 in 7.0 mi NE 3.5 mph - N/A   Clear
6:53 AM 55.9 °F - 54.0 °F 93% 29.97 in 6.0 mi ENE 5.8 mph - N/A   Clear
7:53 AM 62.1 °F - 57.0 °F 84% 29.98 in 8.0 mi Calm Calm - N/A   Clear
8:53 AM 66.9 °F - 54.0 °F 63% 29.98 in 10.0 mi SW 5.8 mph - N/A   Clear
9:53 AM 73.0 °F - 55.0 °F 53% 29.97 in 10.0 mi SW 3.5 mph - N/A   Clear
10:53 AM 79.0 °F - 54.0 °F 42% 29.96 in 10.0 mi Variable 6.9 mph - N/A   Clear
11:53 AM 82.9 °F 82.4 °F 57.0 °F 41% 29.94 in 10.0 mi SE 11.5 mph - N/A   Clear
12:53 PM 87.1 °F 85.1 °F 54.0 °F 32% 29.93 in 10.0 mi SE 10.4 mph - N/A   Clear
1:53 PM 88.0 °F 85.7 °F 53.1 °F 30% 29.91 in 10.0 mi South 9.2 mph 16.1 mph N/A   Clear
2:53 PM 90.0 °F - 52.0 °F 27% 29.89 in 10.0 mi SSE 15.0 mph 19.6 mph N/A   Clear
3:53 PM 91.0 °F - 50.0 °F 24% 29.88 in 10.0 mi SSE 11.5 mph - N/A   Scattered Clouds
4:53 PM 90.0 °F - 48.9 °F 24% 29.86 in 10.0 mi SSE 11.5 mph - N/A   Partly Cloudy
5:53 PM 89.1 °F - 50.0 °F 26% 29.86 in 10.0 mi SSE 13.8 mph 19.6 mph N/A   Clear
6:53 PM 84.9 °F - 51.1 °F 31% 29.87 in 10.0 mi SSE 18.4 mph 24.2 mph N/A   Clear
7:53 PM 81.0 °F 80.4 °F 53.1 °F 38% 29.88 in 10.0 mi SSE 16.1 mph - N/A   Clear
8:53 PM 77.0 °F - 54.0 °F 45% 29.91 in 10.0 mi South 17.3 mph 24.2 mph N/A   Clear
9:53 PM 75.0 °F - 57.0 °F 53% 29.92 in 10.0 mi South 18.4 mph 25.3 mph N/A   Clear
10:53 PM 73.0 °F - 59.0 °F 61% 29.91 in 10.0 mi South 16.1 mph 25.3 mph N/A   Clear
11:53 PM 71.1 °F - 60.1 °F 68% 29.91 in 9.0 mi South 13.8 mph - N/A   Clear